This is the latest recevied weather packets stored in our database for station/object HUGOCO. If no packets are shown the sender has not sent any weather packets the latest 10 day(s).
| Time | Temp. | Humidity | Pressure | Rain* | Wind** | Luminosity | Snow |
|---|---|---|---|---|---|---|---|
| 1777677970 | 13.89° C | 25% | 1022.1 hPa | 0 mm | - | - | - |
| 1777677670 | 13.89° C | 25% | 1022.1 hPa | 0 mm | - | - | - |
| 1777677370 | 13.89° C | 27% | 1022.1 hPa | 0 mm | - | - | - |
| 1777677070 | 13.33° C | 26% | 1022.2 hPa | 0 mm | - | - | - |
| 1777676771 | 13.33° C | 27% | 1022.1 hPa | 0 mm | - | - | - |
| 1777676470 | 13.33° C | 25% | 1022.1 hPa | 0 mm | - | - | - |
| 1777676170 | 13.89° C | 26% | 1022.1 hPa | 0 mm | - | - | - |
| 1777675870 | 13.89° C | 28% | 1022 hPa | 0 mm | - | - | - |
| 1777675570 | 13.33° C | 28% | 1022.1 hPa | 0 mm | - | - | - |
| 1777675271 | 13.33° C | 28% | 1022.2 hPa | 0 mm | - | - | - |
| 1777674971 | 13.33° C | 28% | 1022.2 hPa | 0 mm | - | - | - |
| 1777674671 | 12.78° C | 30% | 1022.3 hPa | 0 mm | - | - | - |
| 1777674386 | 12.78° C | 32% | 1022.3 hPa | 0 mm | - | - | - |
| 1777674071 | 12.78° C | 31% | 1022.5 hPa | 0 mm | - | - | - |
| 1777673771 | 12.78° C | 30% | 1022.4 hPa | 0 mm | - | - | - |
| 1777673470 | 12.78° C | 32% | 1022.5 hPa | 0 mm | - | - | - |
| 1777673171 | 12.78° C | 31% | 1022.5 hPa | 0 mm | - | - | - |
| 1777672871 | 12.78° C | 31% | 1022.6 hPa | 0 mm | - | - | - |
| 1777672571 | 12.78° C | 31% | 1022.5 hPa | 0 mm | - | - | - |
| 1777672271 | 12.78° C | 32% | 1022.7 hPa | 0 mm | - | - | - |
| 1777671971 | 13.33° C | 29% | 1022.8 hPa | 0 mm | - | - | - |
| 1777671671 | 13.33° C | 30% | 1022.7 hPa | 0 mm | - | - | - |
| 1777671371 | 13.33° C | 31% | 1022.8 hPa | 0 mm | - | - | - |
| 1777671071 | 13.33° C | 32% | 1023 hPa | 0 mm | - | - | - |
| 1777670771 | 12.78° C | 31% | 1023.1 hPa | 0 mm | - | - | - |
* Rain latest hour (hover to see other rain measurements)
** Current wind speed in m/s (hover to see current wind gust speed)